Location: Cañada de la Miga
(34.7595°N, 106.2317°W)
Time: 09:20:44
(UTC+00:00)

A-11 Canister half - Pass Details

Date: 03 December 2021
Orbit: 1516 x 1684 km, 47.2° (Epoch: 22 January)

Event Time Altitude Azimuth Distance (km) Brightness Sun altitude
Rises 11:21:16 0° 185° (S) 4,688 11.6 -31.1°
Reaches altitude 10° 11:25:13 10° 170° (S) 3,732 11.2 -30.3°
Maximum altitude 11:31:53 22° 125° (SE) 2,957 11.1 -29.0°
Drops below altitude 10° 11:38:41 10° 79° (E) 3,837 11.9 -27.6°
Sets 11:42:46 0° 66° (ENE) 4,855 12.5 -26.8°
